Weather History for Berlin, NH

Change the Weather History Date:

Sunday, December 27, 1998

  Actual Average Record
Temperature  
Mean Temperature 18 °F -  
Max Temperature 27 °F 25 °F 43 °F (2011)
Min Temperature 10 °F 5 °F -2 °F (2002)
Degree Days  
Heating Degree Days 46    
Moisture  
Dew Point 11 °F    
Average Humidity 67    
Maximum Humidity 86    
Minimum Humidity 41    
Precipitation  
Precipitation 0.01 in - - ()
Sea Level Pressure  
Sea Level Pressure 30.16 in    
Wind  
Wind Speed 5 mph (WNW)    
Max Wind Speed 14 mph    
Max Gust Speed 25 mph    
Visibility 8 miles    
Events Snow    
Averages and records for this station are not official NWS values.
T = Trace of Precipitation, MM = Missing Value Source: NWS Daily Summary

Daily Weather History Graph

Daily Weather History Graph

Search for Another Location

Airport:

Trip Planner

Search our weather history database for the weather conditions in past years. The results will help you decide how hot, cold, wet, or windy it might be!

Date:

Astronomy

Dec. 27, 1998 Rise Set
Actual Time 7:20 AM EST 4:11 PM EST
Civil Twilight 6:47 AM EST 4:44 PM EST
Nautical Twilight 6:10 AM EST 5:21 PM EST
Astronomical Twilight 5:34 AM EST 5:56 PM EST
Moon 12:33 PM EST (12/27) 12:34 AM EST (12/27)
Length of Visible Light 9h 57m
Length of Day
8h 50m
Waxing Gibbous, 64% of the Moon is Illuminated
Dec 27
Waxing Gibbous
Jan 1
Full
Jan 9
Last Quarter
Jan 17
New
Jan 24
First Quarter

Hourly Weather History & Observations

Time (EST) Temp. Windchill Dew Point Humidity Pressure Visibility Wind Dir Wind Speed Gust Speed Precip Events Conditions
12:52 AM 19.9 °F 13.4 °F 12.9 °F 74% 30.02 in 10.0 mi Variable 4.6 mph - N/A   Overcast
1:20 AM 24.8 °F 19.1 °F 17.6 °F 74% 29.98 in 2.5 mi Variable 4.6 mph - 0.00 in Snow Light Snow
1:33 AM 23.0 °F 15.8 °F 17.6 °F 80% 29.98 in 7.0 mi West 5.8 mph - 0.00 in Snow Light Snow
1:52 AM 24.1 °F 18.2 °F 19.0 °F 81% 30.05 in 2.0 mi WNW 4.6 mph - 0.00 in Snow Light Snow
1:55 AM 24.8 °F 16.9 °F 19.4 °F 80% 30.00 in 1.2 mi West 6.9 mph - 0.00 in Snow Light Snow
2:01 AM 24.8 °F 17.9 °F 19.4 °F 80% 30.00 in 1.0 mi WNW 5.8 mph - 0.00 in Snow Light Snow
2:10 AM 24.8 °F 15.3 °F 19.4 °F 80% 30.01 in 0.8 mi WNW 9.2 mph - 0.01 in Snow Light Snow
2:17 AM 24.8 °F 19.1 °F 19.4 °F 80% 30.02 in 1.2 mi WNW 4.6 mph - 0.01 in Snow Light Snow
2:21 AM 24.8 °F 17.9 °F 19.4 °F 80% 30.02 in 1.8 mi Variable 5.8 mph - 0.01 in Snow Light Snow
2:26 AM 23.0 °F 17.0 °F 19.4 °F 86% 30.02 in 3.0 mi Variable 4.6 mph - 0.01 in Snow Light Snow
2:34 AM 23.0 °F 13.1 °F 17.6 °F 80% 30.03 in 9.0 mi NW 9.2 mph - 0.01 in   Mostly Cloudy
2:52 AM 21.9 °F 9.2 °F 9.0 °F 58% 30.11 in 6.0 mi NW 13.8 mph 25.3 mph 0.01 in   Haze
3:52 AM 19.9 °F 7.9 °F 7.0 °F 57% 30.14 in 10.0 mi WNW 11.5 mph 21.9 mph 0.00 in   Clear
4:52 AM 18.0 °F 6.9 °F 7.0 °F 62% 30.18 in 10.0 mi WNW 9.2 mph - N/A   Clear
5:52 AM 17.1 °F 3.6 °F 5.0 °F 59% 30.23 in 10.0 mi WNW 12.7 mph 18.4 mph N/A   Clear
6:52 AM 15.1 °F 1.8 °F 3.9 °F 61% 30.27 in 10.0 mi West 11.5 mph - N/A   Clear
7:52 AM 10.9 °F - 3.0 °F 70% 30.30 in 10.0 mi Calm Calm - N/A   Clear
8:52 AM 16.0 °F - 1.9 °F 54% 30.33 in 10.0 mi Calm Calm - N/A   Clear
9:52 AM 19.0 °F - 3.0 °F 50% 30.35 in 10.0 mi Calm Calm - N/A   Clear
10:52 AM 21.9 °F 15.7 °F 3.9 °F 46% 30.35 in 10.0 mi Variable 4.6 mph - N/A   Clear
11:52 AM 24.1 °F 18.2 °F 5.0 °F 44% 30.32 in 10.0 mi Variable 4.6 mph - N/A   Clear
12:52 PM 25.0 °F 19.3 °F 5.0 °F 43% 30.30 in 10.0 mi Variable 4.6 mph - N/A   Clear
1:52 PM 26.1 °F - 5.0 °F 41% 30.28 in 10.0 mi Calm Calm - N/A   Clear
2:52 PM 27.0 °F - 6.1 °F 41% 30.27 in 10.0 mi Calm Calm - N/A   Clear
3:52 PM 26.1 °F - 6.1 °F 43% 30.27 in 10.0 mi Calm Calm - N/A   Clear
4:52 PM 19.9 °F - 9.0 °F 62% 30.28 in 10.0 mi Calm Calm - N/A   Clear
5:52 PM 18.0 °F - 10.0 °F 71% 30.27 in 10.0 mi Calm Calm - N/A   Partly Cloudy
6:52 PM 19.0 °F - 12.0 °F 74% 30.25 in 10.0 mi Calm Calm - N/A   Clear
7:52 PM 21.0 °F - 12.9 °F 71% 30.25 in 10.0 mi Calm Calm - N/A   Overcast
8:29 PM 21.2 °F - 14.0 °F 74% 30.15 in 10.0 mi Calm Calm - N/A   Overcast
8:52 PM 23.0 °F - 15.1 °F 72% 30.20 in 9.0 mi Calm Calm - N/A   Overcast
9:14 PM 21.2 °F 14.9 °F 14.0 °F 74% 30.12 in 10.0 mi WNW 4.6 mph - 0.00 in   Mostly Cloudy
9:52 PM 21.0 °F 16.2 °F 14.0 °F 74% 30.15 in 10.0 mi NW 3.5 mph - 0.00 in   Partly Cloudy
10:52 PM 19.9 °F - 14.0 °F 78% 30.15 in 10.0 mi Calm Calm - N/A   Clear
11:52 PM 19.9 °F - 14.0 °F 78% 30.12 in 10.0 mi Calm Calm - N/A   Scattered Clouds